Location: Cardiff
(53.7833°N, 113.6000°W)
Time: 21:36:13
(UTC+00:00)

Oscar 19 - Pass Details

Date: 04 December 2023
Orbit: 771 x 789 km, 98.9° (Epoch: 04 March)

Event Time Altitude Azimuth Distance (km) Brightness Sun altitude
Rises 10:52:23 0° 28° (NNE) 3,273 14.4 -40.0°
Reaches altitude 10° 10:55:47 10° 52° (NE) 2,343 13.7 -39.5°
Maximum altitude 10:58:40 15° 86° (E) 2,020 13.4 -39.1°
Drops below altitude 10° 11:01:32 10° 120° (ESE) 2,340 13.5 -38.7°
Sets 11:04:55 0° 143° (SE) 3,266 14.1 -38.2°
